Location: Knowlton
(51.2333°N, 1.2667°E)
Time: 09:08:09
(UTC+00:00)

Cosmos 1633 - Pass Details

Date: 18 April 2021
Orbit: 461 x 478 km, 82.5° (Epoch: 05 May)

Event Time Altitude Azimuth Distance (km) Brightness Sun altitude
Rises 20:57:04 0° 347° (NNW) 2,543 7.2 -16.8°
Reaches altitude 10° 20:59:10 10° 346° (NNW) 1,657 6.2 -17.0°
Maximum altitude 21:02:46 70° 263° (W) 509 2.7 -17.4°
Enters shadow 21:04:15 33° 187° (S) 821 3.4 -17.6°
